This is the latest recevied weather packets stored in our database for station/object KB2FWP. If no packets are shown the sender has not sent any weather packets the latest 10 day(s).
| Time | Temp. | Humidity | Pressure | Rain* | Wind** | Luminosity | Snow |
|---|---|---|---|---|---|---|---|
| 1777941049 | 12.22° C | 86% | 1012.4 hPa | 0 mm | - | - | - |
| 1777940149 | 12.22° C | 85% | 1012.2 hPa | 0 mm | - | - | - |
| 1777939263 | 12.78° C | 85% | 1012.1 hPa | 0 mm | - | - | - |
| 1777938350 | 12.78° C | 85% | 1011.9 hPa | 0 mm | - | - | - |
| 1777937464 | 12.78° C | 84% | 1011.7 hPa | 0 mm | - | - | - |
| 1777936548 | 12.78° C | 84% | 1011.7 hPa | 0 mm | - | - | - |
| 1777935646 | 12.78° C | 86% | 1011.7 hPa | 0 mm | - | - | - |
| 1777934745 | 12.78° C | 85% | 1011.8 hPa | 0 mm | - | - | - |
| 1777933856 | 12.78° C | 84% | 1011.9 hPa | 0 mm | - | - | - |
| 1777932940 | 13.33° C | 83% | 1012 hPa | 0 mm | - | - | - |
| 1777932040 | 13.33° C | 82% | 1012.1 hPa | 0 mm | - | - | - |
| 1777931140 | 13.33° C | 81% | 1012 hPa | 0 mm | - | - | - |
| 1777930250 | 13.89° C | 80% | 1012.1 hPa | 0 mm | - | - | - |
| 1777929338 | 13.89° C | 80% | 1012.1 hPa | 0 mm | - | - | - |
| 1777928440 | 13.89° C | 78% | 1012.1 hPa | 0 mm | - | - | - |
| 1777927544 | 14.44° C | 77% | 1012 hPa | 0 mm | - | - | - |
| 1777926641 | 14.44° C | 77% | 1012 hPa | 0 mm | - | - | - |
| 1777925734 | 14.44° C | 76% | 1012 hPa | 0 mm | - | - | - |
| 1777924834 | 15° C | 76% | 1012.3 hPa | 0 mm | - | - | - |
| 1777923932 | 15° C | 75% | 1012.4 hPa | 0 mm | - | - | - |
| 1777923030 | 15° C | 75% | 1012.6 hPa | 0 mm | - | - | - |
| 1777922129 | 14.44° C | 76% | 1012.7 hPa | 0 mm | - | - | - |
| 1777921228 | 15° C | 75% | 1012.8 hPa | 0 mm | - | - | - |
| 1777920327 | 15° C | 74% | 1012.9 hPa | 0 mm | - | - | - |
| 1777919424 | 15° C | 74% | 1013.1 hPa | 0 mm | - | - | - |
* Rain latest hour (hover to see other rain measurements)
** Current wind speed in m/s (hover to see current wind gust speed)